Weather Service Report


246 
ASCA42 TJSJ 241011
RWRPR 
PUERTO RICO/U.S. VIRGIN ISLANDS HOURLY WEATHER ROUNDUP
NATIONAL WEATHER SERVICE SAN JUAN PR
600 AM AST THU JUL 24 2014

PRZ001-004-241100-
PUERTO RICO
  
CITY           SKY/WX    TMP DP  RH WIND       PRES   REMARKS
SAN JUAN LMM   MOCLDY    82  75  78 NE13      30.03R                  
PONCE          MOCLDY    81  72  74 E6        29.97F                  
AGUADILLA      CLOUDY    79  73  83 E14G20    30.04R                  
CEIBA          MOCLDY    81  73  78 E6        30.06R                  
$$

PRZ006-007-241100-
U.S. VIRGIN ISLANDS
  
CITY           SKY/WX    TMP DP  RH WIND       PRES   REMARKS
CHARLOTTE AMA  MOCLDY    82  75  78 E15       30.02S                  
CHRISTIANSTED  CLEAR     81  73  78 NE10      30.02R                  
$$

HOURLY WEATHER ROUNDUP FOR THE NEWS MEDIA
  
CITY           SKY/WX    TMP DP  RH WIND       PRES   REMARKS
MIAMI          PTCLDY    80  76  87 CALM      30.03R                  
ORLANDO        CLEAR     79  76  90 CALM      30.02R                  
NEW YORK       CLOUDY    74  67  78 N6        29.82S                  
NEWARK         MOCLDY    73  64  73 NW5       29.82R                  
CHICAGO        CLEAR     57  50  77 N7        30.14R                  
HARTFORD       MOCLDY    70  68  93 CALM      29.76R                  
BOSTON         CLOUDY    74  67  78 NW13      29.78R                  
DALLAS         MOCLDY    75  69  81 E5        30.04R                  
PHILADELPHIA   LGT RAIN  72  62  71 N13       29.86R                  

Return to Home page


Western Regional Climate Center, wrcc@dri.edu